Barcelona, Spain

11:01 PM CEST en Octubre 16, 2018 (GMT +0200)
El Prat

Tiempo Historia de LEBL - Octubre, 2018

Change the Weather History Date:

Jueves, Octubre 11, 2018

  Actual Average Record
Temperature  
Temperatura media 70 ° F -  
Temperatura máxima 77 ° F 66 ° F 129 ° F (2002)
Temperatura mínima 62 ° F 53 ° F 53 ° F (2000)
Cooling Degree Days 4    
Growing Degree Days 20 (Base 50)    
Moisture  
Punto de rocío 64 ° F    
Average Humidity 84    
Maximum Humidity 94    
Minimum Humidity 64    
Precipitación  
Precipitación 0.00 pul 0.11 pul - ()
Presión al nivel del mar  
Presión al nivel del mar 29.93 pul    
Viento  
Velocidad del viento 8 mph ()    
Velocidad máxima del viento 17 mph    
Max Gust Speed 22 mph    
Visibilidad 7.3 Millas    
Eventos      
Averages and records for this station are not official NWS values.
T = Trace of Precipitation, MM = Missing Value Source: Averaged Metar Reports

Daily Weather History Graph

Daily Weather History Graph

Search for Another Location

Airport or City:

Astronomía

Oct. 11, 2018 Salida Puesta
Hora real 7:58 AM CEST 7:17 PM CEST
Crepúsculo civil 7:31 AM CEST 7:45 PM CEST
Crepúsculo náutico 6:59 AM CEST 8:17 PM CEST
Crepúsculo astronómico 6:27 AM CEST 8:49 PM CEST
Luna 10:15 AM CEST (10/11) 9:03 PM CEST (10/11)
Horas de luz 12h 14m
Horas de luz
11h 18m
Creciente, 6% of the Moon is Illuminated
Oct 11
Creciente
Oct 16
Cuarto creciente
Oct 24
Luna llena
Oct 31
Cuarto menguante
Nov 7
Nueva

Hourly Weather History & Observations

Hora (CEST) Temp. Punto de rocío Humedad Presión Visibilidad Wind Dir Velocidad del viento Velocidad de ráfagas Precip Eventos Condiciones
12:00 AM 67 ° F 65 ° F 92% 29.86 pul 7 mi Norte 5.8 mph - -  
12:00 AM 66.2 ° F 64.4 ° F 94% 29.86 pul 6.2 mi NNO 3.5 mph - N/A   Parcialmente nublado
12:30 AM 66.2 ° F 64.4 ° F 94% 29.86 pul 6.2 mi NNO 6.9 mph - N/A   Nubes dispersas
1:00 AM 66.2 ° F 64.4 ° F 94% 29.86 pul 6.2 mi NNO 3.5 mph - N/A   Nubes dispersas
1:30 AM 64.4 ° F 62.6 ° F 94% 29.86 pul 6.2 mi NNO 6.9 mph - N/A   Nubes dispersas
2:00 AM 66 ° F 64 ° F 92% 29.87 pul 9 mi Norte 6.9 mph - -   Parcialmente nublado
2:00 AM 64.4 ° F 62.6 ° F 94% 29.86 pul 6.2 mi NNO 6.9 mph - N/A   Nubes dispersas
2:30 AM 64.4 ° F 62.6 ° F 94% 29.86 pul 6.2 mi NNO 8.1 mph - N/A   Nubes dispersas
3:00 AM 65 ° F 64 ° F 93% 29.88 pul 6 mi Norte 6.9 mph - -  
3:00 AM 64.4 ° F 62.6 ° F 94% 29.86 pul 6.2 mi NNO 6.9 mph - N/A   Parcialmente nublado
3:30 AM 64.4 ° F 62.6 ° F 94% 29.86 pul 6.2 mi Norte 3.5 mph - N/A   Parcialmente nublado
4:00 AM 65 ° F 63 ° F 92% 29.87 pul 6 mi NNE 6.9 mph - -  
4:00 AM 64.4 ° F 62.6 ° F 94% 29.86 pul 5.6 mi NNO 6.9 mph - N/A   Parcialmente nublado
4:30 AM 64.4 ° F 60.8 ° F 88% 29.86 pul 5.6 mi Norte 6.9 mph - N/A   Parcialmente nublado
5:00 AM 64 ° F 63 ° F 94% 29.87 pul 5 mi Norte 8.1 mph - -   Neblina
5:00 AM 62.6 ° F 60.8 ° F 94% 29.86 pul 5.0 mi NNO 8.1 mph - N/A   Parcialmente nublado
5:30 AM 62.6 ° F 60.8 ° F 94% 29.86 pul 5.0 mi NNO 9.2 mph - N/A   Parcialmente nublado
6:00 AM 64 ° F 62 ° F 92% 29.87 pul 6 mi Norte 8.1 mph - -   Neblina
6:00 AM 62.6 ° F 60.8 ° F 94% 29.86 pul 5.0 mi NO 4.6 mph - N/A   Parcialmente nublado
6:30 AM 62.6 ° F 60.8 ° F 94% 29.86 pul 5.6 mi NNO 6.9 mph - N/A   Parcialmente nublado
7:00 AM 64 ° F 62 ° F 90% 29.88 pul 6 mi Norte 8.1 mph - -   Neblina
7:00 AM 62.6 ° F 60.8 ° F 94% 29.86 pul 5.6 mi NNO 8.1 mph - N/A   Nubes dispersas
7:30 AM 62.6 ° F 60.8 ° F 94% 29.89 pul 5.6 mi NO 9.2 mph - N/A   Parcialmente nublado
8:00 AM 62.6 ° F 59.0 ° F 88% 29.89 pul 5.6 mi NNO 10.4 mph 21.9 mph N/A   Parcialmente nublado
8:30 AM 62.6 ° F 59.0 ° F 88% 29.89 pul 5.6 mi NNO 8.1 mph 21.9 mph N/A   Nubes dispersas
9:00 AM 63 ° F 61 ° F 91% 29.91 pul 6 mi Norte 9.2 mph - -   Neblina
9:00 AM 62.6 ° F 59.0 ° F 88% 29.89 pul 5.6 mi NO 9.2 mph - N/A   Nubes dispersas
9:30 AM 62.6 ° F 60.8 ° F 94% 29.92 pul 5.6 mi NNO 10.4 mph - N/A   Parcialmente nublado
10:00 AM 66 ° F 63 ° F 85% 29.94 pul 7 mi Norte 10.4 mph - -   Neblina
10:00 AM 64.4 ° F 60.8 ° F 88% 29.92 pul 5.6 mi NO 10.4 mph - N/A   Parcialmente nublado
10:30 AM 66.2 ° F 60.8 ° F 83% 29.92 pul 6.2 mi NO 9.2 mph 20.7 mph N/A   Parcialmente nublado
11:00 AM 68.0 ° F 62.6 ° F 83% 29.92 pul 6.2 mi NNO 9.2 mph - N/A   Parcialmente nublado
11:30 AM 69.8 ° F 64.4 ° F 83% 29.95 pul 6.2 mi NO 6.9 mph - N/A   Parcialmente nublado
12:00 PM 75 ° F 68 ° F 72% 29.95 pul 13 mi SO 4.6 mph - -  
12:00 PM 73.4 ° F 66.2 ° F 78% 29.95 pul 6.2 mi Oeste 3.5 mph - N/A   Parcialmente nublado
12:30 PM 73.4 ° F 66.2 ° F 78% 29.92 pul 6.2 mi SSO 9.2 mph - N/A   Parcialmente nublado
1:00 PM 76 ° F 68 ° F 71% 29.94 pul 10 mi SSO 9.2 mph - -  
1:00 PM 73.4 ° F 66.2 ° F 78% 29.92 pul 6.2 mi SSO 10.4 mph - N/A   Parcialmente nublado
1:30 PM 75.2 ° F 66.2 ° F 73% 29.95 pul 6.2 mi SSO 9.2 mph - N/A   Parcialmente nublado
2:00 PM 75.2 ° F 66.2 ° F 73% 29.95 pul 6.2 mi SSO 11.5 mph - N/A   Parcialmente nublado
2:30 PM 75.2 ° F 66.2 ° F 73% 29.92 pul 6.2 mi SSO 13.8 mph - N/A   Parcialmente nublado
3:00 PM 77 ° F 67 ° F 64% 29.94 pul 8 mi SO 15.0 mph - -   Despejado
3:00 PM 75.2 ° F 66.2 ° F 73% 29.92 pul 6.2 mi SSO 15.0 mph - N/A   Parcialmente nublado
3:30 PM 75.2 ° F 64.4 ° F 69% 29.92 pul 6.2 mi SO 15.0 mph - N/A   Parcialmente nublado
4:00 PM 77 ° F 67 ° F 64% 29.95 pul 14 mi SO 17.3 mph - -  
4:00 PM 75.2 ° F 66.2 ° F 73% 29.95 pul 6.2 mi SO 15.0 mph - N/A   Parcialmente nublado
4:30 PM 75.2 ° F 66.2 ° F 73% 29.95 pul 6.2 mi SSO 12.7 mph - N/A   Parcialmente nublado
5:00 PM 76 ° F 67 ° F 65% 29.95 pul 16 mi SO 12.7 mph - -   Nubes dispersas
5:00 PM 75.2 ° F 64.4 ° F 69% 29.95 pul 6.2 mi SO 12.7 mph - N/A   Parcialmente nublado
5:30 PM 73.4 ° F 66.2 ° F 78% 29.95 pul 6.2 mi SO 12.7 mph - N/A   Parcialmente nublado
6:00 PM 74 ° F 66 ° F 70% 29.95 pul 19 mi OSO 13.8 mph - -  
6:00 PM 73.4 ° F 64.4 ° F 73% 29.95 pul 6.2 mi SO 11.5 mph - N/A   Parcialmente nublado
6:30 PM 71.6 ° F 64.4 ° F 78% 29.95 pul 6.2 mi SO 12.7 mph - N/A   Parcialmente nublado
7:00 PM 73 ° F 66 ° F 73% 29.98 pul 19 mi OSO 11.5 mph - -  
7:00 PM 71.6 ° F 64.4 ° F 78% 29.98 pul 6.2 mi SO 13.8 mph - N/A   Parcialmente nublado
7:30 PM 71.6 ° F 66.2 ° F 83% 29.98 pul 6.2 mi OSO 10.4 mph - N/A   Parcialmente nublado
8:00 PM 72 ° F 67 ° F 79% 30.01 pul 12 mi OSO 8.1 mph - -   Nubes dispersas
8:00 PM 71.6 ° F 66.2 ° F 83% 30.01 pul 6.2 mi OSO 11.5 mph - N/A   Parcialmente nublado
8:30 PM 71.6 ° F 66.2 ° F 83% 30.01 pul 6.2 mi OSO 10.4 mph - N/A   Parcialmente nublado
9:00 PM 72 ° F 67 ° F 79% 30.01 pul 16 mi OSO 8.1 mph - -  
9:00 PM 71.6 ° F 66.2 ° F 83% 30.01 pul 6.2 mi SO 10.4 mph - N/A   Parcialmente nublado
9:30 PM 71.6 ° F 66.2 ° F 83% 30.01 pul 6.2 mi OSO 6.9 mph - N/A   Parcialmente nublado
10:00 PM 71 ° F 67 ° F 82% 30.04 pul 14 mi Oeste 5.8 mph - -  
10:00 PM 69.8 ° F 64.4 ° F 83% 30.04 pul 6.2 mi OSO 8.1 mph - N/A   Parcialmente nublado
10:30 PM 69.8 ° F 66.2 ° F 88% 30.04 pul 6.2 mi OSO 6.9 mph - N/A   Parcialmente nublado
11:00 PM 70 ° F 67 ° F 85% 30.05 pul 12 mi Oeste 1.2 mph - -   Nubes dispersas
11:00 PM 69.8 ° F 66.2 ° F 88% 30.04 pul 6.2 mi Oeste 5.8 mph - N/A   Parcialmente nublado
11:30 PM 69.8 ° F 66.2 ° F 88% 30.04 pul 6.2 mi Oeste 3.5 mph - N/A   Nubes dispersas